Time,TemperatureF,DewpointF,PressureIn,WindDirection,WindDirectionDegrees,WindSpeedMPH,WindSpeedGustMPH,Humidity,HourlyPrecipIn,Conditions,Clouds,dailyrainin,SoftwareType,DateUTC
2013-01-26 00:00:00,26.3,24.3,29.43,WSW,257,6.9,6.9,92,0.00,CLR,,0.00,WeatherDisplay:10.37,2013-01-26 05:00:00,
2013-01-26 00:01:00,26.3,24.3,29.43,West,263,8.1,8.1,92,0.00,CLR,,0.00,WeatherDisplay:10.37,2013-01-26 05:01:00,
2013-01-26 00:06:00,26.1,24.1,29.43,West,275,6.9,6.9,92,0.00,CLR,,0.00,WeatherDisplay:10.37,2013-01-26 05:06:00,
2013-01-26 00:11:00,26.1,24.1,29.42,West,275,5.8,5.8,92,0.00,CLR,,0.00,WeatherDisplay:10.37,2013-01-26 05:11:00,
2013-01-26 00:16:00,26.1,24.1,29.42,SW,226,4.6,4.6,92,0.00,CLR,,0.00,WeatherDisplay:10.37,2013-01-26 05:16:00,
2013-01-26 00:21:00,26.1,24.1,29.42,West,268,4.6,4.6,92,0.00,CLR,,0.00,WeatherDisplay:10.37,2013-01-26 05:21:00,
2013-01-26 00:26:00,26.0,24.0,29.42,WNW,285,5.8,5.8,92,0.00,CLR,,0.00,WeatherDisplay:10.37,2013-01-26 05:26:00,
2013-01-26 00:31:00,26.1,24.1,29.42,West,265,8.1,8.1,92,0.00,CLR,,0.00,WeatherDisplay:10.37,2013-01-26 05:31:00,
2013-01-26 00:36:00,26.0,24.0,29.42,WSW,251,6.0,6.0,92,0.00,CLR,,0.00,WeatherDisplay:10.37,2013-01-26 05:36:00,
2013-01-26 00:41:00,26.0,24.0,29.42,West,280,5.0,5.0,92,0.00,CLR,,0.00,WeatherDisplay:10.37,2013-01-26 05:41:00,
2013-01-26 00:46:00,26.0,24.3,29.42,WSW,258,6.0,6.0,93,0.00,CLR,,0.00,WeatherDisplay:10.37,2013-01-26 05:46:00,
2013-01-26 00:51:00,26.0,24.3,29.42,SW,234,3.5,3.5,93,0.00,CLR,,0.00,WeatherDisplay:10.37,2013-01-26 05:51:00,
2013-01-26 00:56:00,26.0,24.3,29.42,WSW,257,6.9,6.9,93,0.00,CLR,,0.00,WeatherDisplay:10.37,2013-01-26 05:56:00,
2013-01-26 01:01:00,26.0,24.3,29.42,WSW,254,6.9,6.9,93,0.00,CLR,,0.00,WeatherDisplay:10.37,2013-01-26 06:01:00,
2013-01-26 01:06:00,26.0,24.3,29.42,West,268,4.6,4.6,93,0.00,CLR,,0.00,WeatherDisplay:10.37,2013-01-26 06:06:00,
2013-01-26 01:11:00,26.0,24.3,29.42,WSW,257,6.9,6.9,93,0.00,CLR,,0.00,WeatherDisplay:10.37,2013-01-26 06:11:00,
2013-01-26 01:16:00,26.0,24.3,29.42,WSW,254,4.6,4.6,93,0.00,CLR,,0.00,WeatherDisplay:10.37,2013-01-26 06:16:00,
2013-01-26 01:21:00,26.0,24.3,29.42,WSW,257,3.5,3.5,93,0.00,CLR,,0.00,WeatherDisplay:10.37,2013-01-26 06:21:00,
2013-01-26 01:26:00,26.0,24.3,29.42,West,260,5.8,5.8,93,0.00,CLR,,0.00,WeatherDisplay:10.37,2013-01-26 06:26:00,
2013-01-26 01:31:00,26.0,24.3,29.42,West,278,5.8,5.8,93,0.00,CLR,,0.00,WeatherDisplay:10.37,2013-01-26 06:31:00,
2013-01-26 01:36:00,26.1,24.4,29.42,WSW,256,3.5,3.5,93,0.00,CLR,,0.00,WeatherDisplay:10.37,2013-01-26 06:36:00,
2013-01-26 01:41:00,26.1,24.6,29.41,WSW,241,4.6,4.6,94,0.00,CLR,,0.00,WeatherDisplay:10.37,2013-01-26 06:41:00,
2013-01-26 01:46:00,26.1,24.6,29.41,WSW,254,4.6,4.6,94,0.00,CLR,,0.00,WeatherDisplay:10.37,2013-01-26 06:46:00,
2013-01-26 01:51:00,26.1,24.6,29.41,West,263,3.5,3.5,94,0.00,CLR,,0.00,WeatherDisplay:10.37,2013-01-26 06:51:00,
2013-01-26 01:56:00,26.1,24.6,29.41,WSW,250,6.9,6.9,94,0.00,CLR,,0.00,WeatherDisplay:10.37,2013-01-26 06:56:00,
2013-01-26 02:01:00,26.1,24.6,29.41,WSW,240,5.0,5.0,94,0.00,CLR,,0.00,WeatherDisplay:10.37,2013-01-26 07:01:00,
2013-01-26 02:06:00,26.0,24.5,29.41,West,263,4.6,4.6,94,0.00,CLR,,0.00,WeatherDisplay:10.37,2013-01-26 07:06:00,
2013-01-26 02:11:00,26.0,24.5,29.41,WSW,256,5.0,5.0,94,0.00,CLR,,0.00,WeatherDisplay:10.37,2013-01-26 07:11:00,
2013-01-26 02:16:00,26.1,24.6,29.41,West,270,4.6,4.6,94,0.00,CLR,,0.00,WeatherDisplay:10.37,2013-01-26 07:16:00,
2013-01-26 02:21:00,26.1,24.6,29.41,WSW,254,4.6,4.6,94,0.00,CLR,,0.00,WeatherDisplay:10.37,2013-01-26 07:21:00,
2013-01-26 02:26:00,26.0,24.5,29.41,WSW,243,3.5,3.5,94,0.00,CLR,,0.00,WeatherDisplay:10.37,2013-01-26 07:26:00,
2013-01-26 02:31:00,26.1,24.6,29.41,SW,232,5.8,5.8,94,0.00,CLR,,0.00,WeatherDisplay:10.37,2013-01-26 07:31:00,
2013-01-26 02:36:00,26.1,24.6,29.41,WNW,298,3.5,3.5,94,0.00,CLR,,0.00,WeatherDisplay:10.37,2013-01-26 07:36:00,
2013-01-26 02:41:00,26.1,24.9,29.41,WSW,248,0.0,0.0,95,0.00,CLR,,0.00,WeatherDisplay:10.37,2013-01-26 07:41:00,
2013-01-26 02:46:00,26.1,24.9,29.41,SW,230,0.0,0.0,95,0.00,CLR,,0.00,WeatherDisplay:10.37,2013-01-26 07:46:00,
2013-01-26 02:51:00,26.1,24.9,29.41,SW,230,0.0,0.0,95,0.00,CLR,,0.00,WeatherDisplay:10.37,2013-01-26 07:51:00,
2013-01-26 02:56:00,26.1,24.9,29.41,SW,230,0.0,0.0,95,0.00,CLR,,0.00,WeatherDisplay:10.37,2013-01-26 07:56:00,
2013-01-26 03:01:00,26.1,24.9,29.41,WSW,239,2.3,0.0,95,0.00,CLR,,0.00,WeatherDisplay:10.37,2013-01-26 08:01:00,
2013-01-26 03:06:00,26.1,24.9,29.41,WSW,240,0.0,0.0,95,0.00,CLR,,0.00,WeatherDisplay:10.37,2013-01-26 08:06:00,
2013-01-26 03:11:00,26.1,24.9,29.41,West,267,3.5,3.5,95,0.00,CLR,,0.00,WeatherDisplay:10.37,2013-01-26 08:11:00,
2013-01-26 03:16:00,26.1,24.9,29.41,WNW,282,3.5,3.5,95,0.00,CLR,,0.00,WeatherDisplay:10.37,2013-01-26 08:16:00,
2013-01-26 03:21:00,26.1,24.9,29.41,West,261,4.6,4.6,95,0.00,CLR,,0.00,WeatherDisplay:10.37,2013-01-26 08:21:00,
2013-01-26 03:26:00,26.1,24.9,29.41,West,264,3.0,3.0,95,0.00,CLR,,0.00,WeatherDisplay:10.37,2013-01-26 08:26:00,
2013-01-26 03:31:00,26.1,24.9,29.41,West,267,5.0,5.0,95,0.00,CLR,,0.00,WeatherDisplay:10.37,2013-01-26 08:31:00,
2013-01-26 03:36:00,26.1,24.9,29.41,WNW,292,3.5,0.0,95,0.00,CLR,,0.00,WeatherDisplay:10.37,2013-01-26 08:36:00,
2013-01-26 03:41:00,26.1,24.9,29.42,West,271,3.5,3.5,95,0.00,CLR,,0.00,WeatherDisplay:10.37,2013-01-26 08:41:00,
2013-01-26 03:46:00,26.1,24.9,29.42,SW,229,3.5,3.5,95,0.00,CLR,,0.00,WeatherDisplay:10.37,2013-01-26 08:46:00,
2013-01-26 03:51:00,26.1,24.9,29.42,West,274,2.3,2.3,95,0.00,CLR,,0.00,WeatherDisplay:10.37,2013-01-26 08:51:00,
2013-01-26 03:56:00,26.3,25.3,29.42,West,263,0.0,0.0,96,0.00,CLR,,0.00,WeatherDisplay:10.37,2013-01-26 08:56:00,
2013-01-26 04:01:00,26.3,25.3,29.42,WSW,257,3.5,3.5,96,0.00,CLR,,0.00,WeatherDisplay:10.37,2013-01-26 09:01:00,
2013-01-26 04:06:00,26.3,25.3,29.42,WSW,248,5.8,5.8,96,0.00,CLR,,0.00,WeatherDisplay:10.37,2013-01-26 09:06:00,
2013-01-26 04:11:00,26.3,25.3,29.42,WNW,284,3.5,3.5,96,0.00,CLR,,0.00,WeatherDisplay:10.37,2013-01-26 09:11:00,
2013-01-26 04:16:00,26.3,25.3,29.42,SW,229,3.5,3.5,96,0.00,CLR,,0.00,WeatherDisplay:10.37,2013-01-26 09:16:00,
2013-01-26 04:21:00,26.3,25.3,29.42,WNW,295,4.6,4.6,96,0.00,CLR,,0.00,WeatherDisplay:10.37,2013-01-26 09:21:00,
2013-01-26 04:26:00,26.4,25.4,29.43,WSW,240,0.0,0.0,96,0.00,CLR,,0.00,WeatherDisplay:10.37,2013-01-26 09:26:00,
2013-01-26 04:31:00,26.4,25.4,29.43,WSW,240,0.0,0.0,96,0.00,CLR,,0.00,WeatherDisplay:10.37,2013-01-26 09:31:00,
2013-01-26 04:36:00,26.4,25.4,29.43,West,265,2.3,2.3,96,0.00,CLR,,0.00,WeatherDisplay:10.37,2013-01-26 09:36:00,
2013-01-26 04:41:00,26.4,25.4,29.43,SW,224,4.6,4.6,96,0.00,CLR,,0.00,WeatherDisplay:10.37,2013-01-26 09:41:00,
2013-01-26 04:46:00,26.4,25.4,29.43,West,277,0.0,0.0,96,0.00,CLR,,0.00,WeatherDisplay:10.37,2013-01-26 09:46:00,
2013-01-26 04:51:00,26.4,25.4,29.43,West,280,0.0,0.0,96,0.00,CLR,,0.00,WeatherDisplay:10.37,2013-01-26 09:51:00,
2013-01-26 04:56:00,26.6,25.6,29.43,West,278,0.0,0.0,96,0.00,CLR,,0.00,WeatherDisplay:10.37,2013-01-26 09:56:00,
2013-01-26 05:01:00,26.6,25.6,29.43,West,278,0.0,0.0,96,0.00,CLR,,0.00,WeatherDisplay:10.37,2013-01-26 10:01:00,
2013-01-26 05:06:00,26.6,25.6,29.43,West,278,0.0,0.0,96,0.00,CLR,,0.00,WeatherDisplay:10.37,2013-01-26 10:06:00,
2013-01-26 05:11:00,26.7,25.7,29.43,SW,230,2.3,2.3,96,0.00,CLR,,0.00,WeatherDisplay:10.37,2013-01-26 10:11:00,
2013-01-26 05:16:00,26.7,25.7,29.43,SW,230,0.0,0.0,96,0.00,CLR,,0.00,WeatherDisplay:10.37,2013-01-26 10:16:00,
2013-01-26 05:21:00,26.7,25.7,29.43,SW,230,0.0,0.0,96,0.00,CLR,,0.00,WeatherDisplay:10.37,2013-01-26 10:21:00,
2013-01-26 05:26:00,26.7,25.7,29.44,SW,230,0.0,0.0,96,0.00,CLR,,0.00,WeatherDisplay:10.37,2013-01-26 10:26:00,
2013-01-26 05:31:00,26.7,25.7,29.44,SW,230,0.0,0.0,96,0.00,CLR,,0.00,WeatherDisplay:10.37,2013-01-26 10:31:00,
2013-01-26 05:36:00,26.7,25.7,29.44,SW,230,0.0,0.0,96,0.00,CLR,,0.00,WeatherDisplay:10.37,2013-01-26 10:36:00,
2013-01-26 05:41:00,26.7,25.7,29.44,SW,230,0.0,0.0,96,0.00,CLR,,0.00,WeatherDisplay:10.37,2013-01-26 10:41:00,
2013-01-26 05:46:00,26.7,25.7,29.44,SW,230,0.0,0.0,96,0.00,CLR,,0.00,WeatherDisplay:10.37,2013-01-26 10:46:00,
2013-01-26 05:51:00,26.7,25.7,29.44,SW,230,0.0,0.0,96,0.00,CLR,,0.00,WeatherDisplay:10.37,2013-01-26 10:51:00,
2013-01-26 05:56:00,26.7,25.7,29.44,SW,230,0.0,0.0,96,0.00,CLR,,0.00,WeatherDisplay:10.37,2013-01-26 10:56:00,
2013-01-26 06:01:00,26.7,25.7,29.44,West,264,0.0,0.0,96,0.00,CLR,,0.00,WeatherDisplay:10.37,2013-01-26 11:01:00,
2013-01-26 06:06:00,26.7,25.7,29.44,West,264,0.0,0.0,96,0.00,CLR,,0.00,WeatherDisplay:10.37,2013-01-26 11:06:00,
2013-01-26 06:11:00,26.7,25.7,29.46,WNW,298,0.0,0.0,96,0.00,CLR,,0.00,WeatherDisplay:10.37,2013-01-26 11:11:00,
2013-01-26 06:16:00,26.7,25.7,29.46,North,352,0.0,0.0,96,0.00,CLR,,0.00,WeatherDisplay:10.37,2013-01-26 11:16:00,
2013-01-26 06:21:00,26.7,25.7,29.46,North,352,0.0,0.0,96,0.00,CLR,,0.00,WeatherDisplay:10.37,2013-01-26 11:21:00,
2013-01-26 06:26:00,26.7,25.7,29.47,WSW,258,0.0,0.0,96,0.00,CLR,,0.00,WeatherDisplay:10.37,2013-01-26 11:26:00,
2013-01-26 06:31:00,26.7,25.7,29.47,WSW,258,0.0,0.0,96,0.00,CLR,,0.00,WeatherDisplay:10.37,2013-01-26 11:31:00,
2013-01-26 06:36:00,26.7,25.7,29.47,WSW,258,0.0,0.0,96,0.00,CLR,,0.00,WeatherDisplay:10.37,2013-01-26 11:36:00,
2013-01-26 06:41:00,26.7,25.7,29.47,WSW,258,0.0,0.0,96,0.00,CLR,,0.00,WeatherDisplay:10.37,2013-01-26 11:41:00,
2013-01-26 06:46:00,26.7,25.7,29.47,WSW,258,0.0,0.0,96,0.00,CLR,,0.00,WeatherDisplay:10.37,2013-01-26 11:46:00,
2013-01-26 06:51:00,26.7,25.7,29.47,WSW,258,0.0,0.0,96,0.00,CLR,,0.00,WeatherDisplay:10.37,2013-01-26 11:51:00,
2013-01-26 06:56:00,26.7,25.7,29.48,WSW,258,0.0,0.0,96,0.00,CLR,,0.00,WeatherDisplay:10.37,2013-01-26 11:56:00,
2013-01-26 07:01:00,26.9,25.9,29.48,WSW,258,0.0,0.0,96,0.00,CLR,,0.00,WeatherDisplay:10.37,2013-01-26 12:01:00,
2013-01-26 07:06:00,26.9,25.9,29.48,WSW,258,0.0,0.0,96,0.00,CLR,,0.00,WeatherDisplay:10.37,2013-01-26 12:06:00,
2013-01-26 07:11:00,26.9,25.9,29.48,WSW,258,0.0,0.0,96,0.00,CLR,,0.00,WeatherDisplay:10.37,2013-01-26 12:11:00,
2013-01-26 07:16:00,26.9,25.9,29.48,WSW,258,0.0,0.0,96,0.00,CLR,,0.00,WeatherDisplay:10.37,2013-01-26 12:16:00,
2013-01-26 07:21:00,26.9,25.9,29.48,WSW,258,0.0,0.0,96,0.00,CLR,,0.00,WeatherDisplay:10.37,2013-01-26 12:21:00,
2013-01-26 07:26:00,27.0,26.0,29.49,WSW,258,0.0,0.0,96,0.00,CLR,,0.00,WeatherDisplay:10.37,2013-01-26 12:26:00,
2013-01-26 07:31:00,27.0,26.0,29.49,WSW,258,0.0,0.0,96,0.00,CLR,,0.00,WeatherDisplay:10.37,2013-01-26 12:31:00,
2013-01-26 07:36:00,27.0,26.0,29.49,WSW,258,0.0,0.0,96,0.00,CLR,,0.00,WeatherDisplay:10.37,2013-01-26 12:36:00,
2013-01-26 07:41:00,27.0,26.0,29.50,WSW,258,0.0,0.0,96,0.00,CLR,,0.00,WeatherDisplay:10.37,2013-01-26 12:41:00,
2013-01-26 07:46:00,27.0,26.0,29.50,WSW,258,0.0,0.0,96,0.00,CLR,,0.00,WeatherDisplay:10.37,2013-01-26 12:46:00,
2013-01-26 07:51:00,26.9,25.9,29.50,WSW,258,0.0,0.0,96,0.00,CLR,,0.00,WeatherDisplay:10.37,2013-01-26 12:51:00,
2013-01-26 07:56:00,26.9,25.9,29.50,WSW,258,0.0,0.0,96,0.00,CLR,,0.00,WeatherDisplay:10.37,2013-01-26 12:56:00,
2013-01-26 08:01:00,27.0,26.0,29.50,WSW,258,0.0,0.0,96,0.00,CLR,,0.00,WeatherDisplay:10.37,2013-01-26 13:01:00,
2013-01-26 08:06:00,27.0,26.0,29.50,WSW,258,0.0,0.0,96,0.00,CLR,,0.00,WeatherDisplay:10.37,2013-01-26 13:06:00,
2013-01-26 08:11:00,27.0,26.0,29.51,WSW,258,0.0,0.0,96,0.00,CLR,,0.00,WeatherDisplay:10.37,2013-01-26 13:11:00,
2013-01-26 08:16:00,27.2,26.2,29.51,WSW,258,0.0,0.0,96,0.00,CLR,,0.00,WeatherDisplay:10.37,2013-01-26 13:16:00,
2013-01-26 08:21:00,27.2,26.2,29.51,WSW,258,0.0,0.0,96,0.00,CLR,,0.00,WeatherDisplay:10.37,2013-01-26 13:21:00,
2013-01-26 08:26:00,27.3,26.3,29.52,WSW,258,0.0,0.0,96,0.00,CLR,,0.00,WeatherDisplay:10.37,2013-01-26 13:26:00,
2013-01-26 08:31:00,27.5,26.5,29.52,WSW,258,0.0,0.0,96,0.00,CLR,,0.00,WeatherDisplay:10.37,2013-01-26 13:31:00,
2013-01-26 08:36:00,27.5,26.5,29.52,WSW,258,0.0,0.0,96,0.00,CLR,,0.00,WeatherDisplay:10.37,2013-01-26 13:36:00,
2013-01-26 08:41:00,27.5,26.5,29.53,WSW,258,0.0,0.0,96,0.00,CLR,,0.00,WeatherDisplay:10.37,2013-01-26 13:41:00,
2013-01-26 08:46:00,27.6,26.6,29.53,WSW,258,0.0,0.0,96,0.00,CLR,,0.00,WeatherDisplay:10.37,2013-01-26 13:46:00,
2013-01-26 08:51:00,27.6,26.6,29.53,WSW,243,3.5,3.5,96,0.00,CLR,,0.00,WeatherDisplay:10.37,2013-01-26 13:51:00,
2013-01-26 08:56:00,27.6,26.6,29.53,WSW,244,2.0,2.0,96,0.00,CLR,,0.00,WeatherDisplay:10.37,2013-01-26 13:56:00,
2013-01-26 09:01:00,27.6,26.6,29.53,NNW,340,0.0,0.0,96,0.00,CLR,,0.00,WeatherDisplay:10.37,2013-01-26 14:01:00,
2013-01-26 09:06:00,27.8,26.8,29.53,NNW,340,0.0,0.0,96,0.00,CLR,,0.00,WeatherDisplay:10.37,2013-01-26 14:06:00,
2013-01-26 09:11:00,27.9,26.9,29.54,NNW,340,0.0,0.0,96,0.00,CLR,,0.00,WeatherDisplay:10.37,2013-01-26 14:11:00,
2013-01-26 09:17:00,27.9,26.9,29.54,NNW,339,0.0,0.0,96,0.00,CLR,,0.00,WeatherDisplay:10.37,2013-01-26 14:17:00,
2013-01-26 09:22:00,27.9,26.9,29.54,NNW,340,0.0,0.0,96,0.00,CLR,,0.00,WeatherDisplay:10.37,2013-01-26 14:22:00,
2013-01-26 09:27:00,27.9,26.9,29.54,NNW,339,0.0,0.0,96,0.00,CLR,,0.00,WeatherDisplay:10.37,2013-01-26 14:27:00,
2013-01-26 09:32:00,28.1,27.1,29.54,NNW,339,0.0,0.0,96,0.00,CLR,,0.00,WeatherDisplay:10.37,2013-01-26 14:32:00,
2013-01-26 09:37:00,28.2,27.2,29.54,NNW,339,0.0,0.0,96,0.00,CLR,,0.00,WeatherDisplay:10.37,2013-01-26 14:37:00,
2013-01-26 09:42:00,28.4,27.4,29.55,NNW,339,0.0,0.0,96,0.00,CLR,,0.00,WeatherDisplay:10.37,2013-01-26 14:42:00,
2013-01-26 09:47:00,28.5,27.5,29.55,West,280,0.0,0.0,96,0.00,CLR,,0.00,WeatherDisplay:10.37,2013-01-26 14:47:00,
2013-01-26 09:52:00,28.5,27.5,29.55,West,280,0.0,0.0,96,0.00,CLR,,0.00,WeatherDisplay:10.37,2013-01-26 14:52:00,
2013-01-26 09:57:00,28.7,27.7,29.56,West,280,0.0,0.0,96,0.00,CLR,,0.00,WeatherDisplay:10.37,2013-01-26 14:57:00,
2013-01-26 10:02:00,28.7,27.7,29.56,West,280,0.0,0.0,96,0.00,CLR,,0.00,WeatherDisplay:10.37,2013-01-26 15:02:00,
2013-01-26 10:07:00,28.8,27.8,29.56,NNW,328,0.0,0.0,96,0.00,CLR,,0.00,WeatherDisplay:10.37,2013-01-26 15:07:00,
2013-01-26 10:12:00,29.0,28.0,29.57,NNW,328,0.0,0.0,96,0.00,CLR,,0.00,WeatherDisplay:10.37,2013-01-26 15:12:00,
2013-01-26 10:17:00,29.0,28.0,29.57,NNW,328,0.0,0.0,96,0.00,CLR,,0.00,WeatherDisplay:10.37,2013-01-26 15:17:00,
2013-01-26 10:22:00,29.0,28.0,29.57,NNW,328,0.0,0.0,96,0.00,CLR,,0.00,WeatherDisplay:10.37,2013-01-26 15:22:00,
2013-01-26 10:27:00,29.0,28.0,29.58,NNW,328,0.0,0.0,96,0.00,CLR,,0.00,WeatherDisplay:10.37,2013-01-26 15:27:00,
2013-01-26 10:32:00,29.3,28.3,29.58,NNW,328,0.0,0.0,96,0.00,CLR,,0.00,WeatherDisplay:10.37,2013-01-26 15:32:00,
2013-01-26 10:37:00,29.5,28.5,29.58,NNW,328,0.0,0.0,96,0.00,CLR,,0.00,WeatherDisplay:10.37,2013-01-26 15:37:00,
2013-01-26 10:42:00,29.7,28.7,29.58,NNW,328,0.0,0.0,96,0.00,CLR,,0.00,WeatherDisplay:10.37,2013-01-26 15:42:00,
2013-01-26 10:47:00,29.8,28.8,29.58,NNW,328,0.0,0.0,96,0.00,CLR,,0.00,WeatherDisplay:10.37,2013-01-26 15:47:00,
2013-01-26 10:52:00,29.8,28.8,29.58,NNW,328,0.0,0.0,96,0.00,CLR,,0.00,WeatherDisplay:10.37,2013-01-26 15:52:00,
2013-01-26 10:57:00,29.7,28.7,29.58,NNW,328,0.0,0.0,96,0.00,CLR,,0.00,WeatherDisplay:10.37,2013-01-26 15:57:00,
2013-01-26 11:02:00,29.8,28.8,29.58,NNW,328,0.0,0.0,96,0.00,CLR,,0.00,WeatherDisplay:10.37,2013-01-26 16:02:00,
2013-01-26 11:07:00,30.0,29.0,29.58,NNW,329,0.0,0.0,96,0.00,CLR,,0.00,WeatherDisplay:10.37,2013-01-26 16:07:00,
2013-01-26 11:12:00,30.1,29.1,29.58,North,349,3.5,3.5,96,0.00,CLR,,0.00,WeatherDisplay:10.37,2013-01-26 16:12:00,
2013-01-26 11:17:00,30.1,29.1,29.58,North,0,0.0,0.0,96,0.00,CLR,,0.00,WeatherDisplay:10.37,2013-01-26 16:17:00,
2013-01-26 11:22:00,30.3,29.3,29.58,North,0,3.5,3.5,96,0.00,CLR,,0.00,WeatherDisplay:10.37,2013-01-26 16:22:00,
2013-01-26 11:27:00,30.4,29.4,29.58,North,4,0.0,0.0,96,0.00,CLR,,0.00,WeatherDisplay:10.37,2013-01-26 16:27:00,
2013-01-26 11:32:00,30.6,29.6,29.58,North,6,0.0,0.0,96,0.00,CLR,,0.00,WeatherDisplay:10.37,2013-01-26 16:32:00,
2013-01-26 11:37:00,30.7,29.7,29.58,NNE,18,0.0,0.0,96,0.00,CLR,,0.00,WeatherDisplay:10.37,2013-01-26 16:37:00,
2013-01-26 11:42:00,30.7,29.7,29.58,NNE,27,0.0,0.0,96,0.01,RA,,0.01,WeatherDisplay:10.37,2013-01-26 16:42:00,
2013-01-26 11:47:00,30.9,29.9,29.58,NE,34,0.0,0.0,96,0.01,RA,,0.01,WeatherDisplay:10.37,2013-01-26 16:47:00,
2013-01-26 11:52:00,31.0,30.0,29.58,NNE,32,0.0,0.0,96,0.01,CLR,,0.01,WeatherDisplay:10.37,2013-01-26 16:52:00,
2013-01-26 11:57:00,31.2,29.9,29.57,NNE,27,0.0,0.0,95,0.02,RA,,0.02,WeatherDisplay:10.37,2013-01-26 16:57:00,
2013-01-26 12:02:00,31.0,29.7,29.57,NE,34,0.0,0.0,95,0.02,RA,,0.02,WeatherDisplay:10.37,2013-01-26 17:02:00,
2013-01-26 12:07:00,31.0,29.7,29.57,North,0,0.0,0.0,95,0.02,CLR,,0.03,WeatherDisplay:10.37,2013-01-26 17:07:00,
2013-01-26 12:12:00,31.0,29.7,29.57,NNE,16,0.0,0.0,95,0.03,RA,,0.03,WeatherDisplay:10.37,2013-01-26 17:12:00,
2013-01-26 12:17:00,31.2,29.7,29.57,NNE,27,0.0,0.0,94,0.03,RA,,0.03,WeatherDisplay:10.37,2013-01-26 17:17:00,
2013-01-26 12:22:00,31.2,29.7,29.57,NE,41,0.0,0.0,94,0.03,CLR,,0.03,WeatherDisplay:10.37,2013-01-26 17:22:00,
2013-01-26 12:27:00,31.2,29.7,29.56,North,0,0.0,0.0,94,0.03,CLR,,0.03,WeatherDisplay:10.37,2013-01-26 17:27:00,
2013-01-26 12:32:00,31.3,29.5,29.56,North,1,0.0,0.0,93,0.03,CLR,,0.03,WeatherDisplay:10.37,2013-01-26 17:32:00,
2013-01-26 12:37:00,31.5,29.7,29.56,North,1,0.0,0.0,93,0.04,RA,,0.04,WeatherDisplay:10.37,2013-01-26 17:37:00,
2013-01-26 12:42:00,31.6,29.8,29.56,North,10,0.0,0.0,93,0.03,RA,,0.04,WeatherDisplay:10.37,2013-01-26 17:42:00,
2013-01-26 12:47:00,31.8,30.0,29.56,NE,37,0.0,0.0,93,0.03,CLR,,0.04,WeatherDisplay:10.37,2013-01-26 17:47:00,
2013-01-26 12:52:00,31.9,30.1,29.56,NE,42,0.0,0.0,93,0.03,CLR,,0.04,WeatherDisplay:10.37,2013-01-26 17:52:00,
2013-01-26 12:57:00,31.8,29.7,29.56,ENE,73,4.6,4.6,92,0.03,RA,,0.05,WeatherDisplay:10.37,2013-01-26 17:57:00,
2013-01-26 13:02:00,31.9,29.8,29.56,NNE,17,3.5,3.5,92,0.03,RA,,0.05,WeatherDisplay:10.37,2013-01-26 18:02:00,
2013-01-26 13:07:00,31.9,29.8,29.56,NNE,31,5.8,5.8,92,0.03,,,0.05,WeatherDisplay:10.37,2013-01-26 18:07:00,
2013-01-26 13:12:00,32.2,30.1,29.55,NNE,24,0.0,0.0,92,0.02,CLR,,0.05,WeatherDisplay:10.37,2013-01-26 18:12:00,
2013-01-26 13:17:00,32.2,30.1,29.55,NNE,27,0.0,0.0,92,0.02,CLR,,0.05,WeatherDisplay:10.37,2013-01-26 18:17:00,
2013-01-26 13:22:00,32.2,29.9,29.55,NNE,28,3.5,3.5,91,0.03,RA,,0.06,WeatherDisplay:10.37,2013-01-26 18:22:00,
2013-01-26 13:27:00,32.2,29.9,29.55,NE,47,3.5,3.5,91,0.03,RA,,0.06,WeatherDisplay:10.37,2013-01-26 18:27:00,
2013-01-26 13:32:00,32.2,29.9,29.55,NE,41,3.5,0.0,91,0.03,CLR,,0.06,WeatherDisplay:10.37,2013-01-26 18:32:00,
2013-01-26 13:37:00,32.4,30.1,29.55,NE,41,0.0,0.0,91,0.02,CLR,,0.06,WeatherDisplay:10.37,2013-01-26 18:37:00,
2013-01-26 13:42:00,32.4,30.1,29.55,NE,41,0.0,0.0,91,0.02,CLR,,0.06,WeatherDisplay:10.37,2013-01-26 18:42:00,
2013-01-26 13:47:00,32.5,30.2,29.55,NE,34,0.0,0.0,91,0.03,RA,,0.07,WeatherDisplay:10.37,2013-01-26 18:47:00,
2013-01-26 13:52:00,32.7,30.4,29.55,SE,130,3.5,3.5,91,0.03,RA,,0.07,WeatherDisplay:10.37,2013-01-26 18:52:00,
2013-01-26 13:57:00,32.5,29.9,29.54,North,354,3.5,3.5,90,0.02,CLR,,0.07,WeatherDisplay:10.37,2013-01-26 18:57:00,
2013-01-26 14:02:00,32.7,30.1,29.54,North,354,0.0,0.0,90,0.02,CLR,,0.07,WeatherDisplay:10.37,2013-01-26 19:02:00,
2013-01-26 14:07:00,32.9,30.3,29.54,NE,45,3.5,3.5,90,0.02,CLR,,0.08,WeatherDisplay:10.37,2013-01-26 19:07:00,
2013-01-26 14:12:00,32.9,30.3,29.55,NE,45,0.0,0.2,90,0.03,RA,,0.08,WeatherDisplay:10.37,2013-01-26 19:12:00,
2013-01-26 14:17:00,33.1,30.5,29.55,NE,45,0.0,0.0,90,0.03,RA,,0.08,WeatherDisplay:10.37,2013-01-26 19:17:00,
2013-01-26 14:22:00,32.9,30.0,29.55,NE,45,3.5,0.0,89,0.02,CLR,,0.08,WeatherDisplay:10.37,2013-01-26 19:22:00,
2013-01-26 14:27:00,32.9,30.0,29.55,North,8,1.1,0.0,89,0.02,CLR,,0.08,WeatherDisplay:10.37,2013-01-26 19:27:00,
2013-01-26 14:32:00,33.1,30.2,29.55,North,11,1.1,0.0,89,0.03,RA,,0.09,WeatherDisplay:10.37,2013-01-26 19:32:00,
2013-01-26 14:37:00,32.9,30.0,29.55,North,8,0.0,0.0,89,0.03,RA,,0.09,WeatherDisplay:10.37,2013-01-26 19:37:00,
2013-01-26 14:42:00,33.1,30.2,29.55,North,8,0.0,0.0,89,0.03,CLR,,0.09,WeatherDisplay:10.37,2013-01-26 19:42:00,
2013-01-26 14:47:00,33.1,30.2,29.55,North,8,0.0,0.0,89,0.02,CLR,,0.09,WeatherDisplay:10.37,2013-01-26 19:47:00,
2013-01-26 14:52:00,33.1,30.2,29.55,NNE,23,0.0,0.0,89,0.02,CLR,,0.09,WeatherDisplay:10.37,2013-01-26 19:52:00,
2013-01-26 14:57:00,32.9,30.0,29.55,NNE,23,0.0,0.0,89,0.02,CLR,,0.09,WeatherDisplay:10.37,2013-01-26 19:57:00,
2013-01-26 15:02:00,32.9,30.0,29.55,NNE,23,0.0,0.0,89,0.02,CLR,,0.09,WeatherDisplay:10.37,2013-01-26 20:02:00,
2013-01-26 15:07:00,33.1,30.2,29.55,NNE,23,0.0,0.0,89,0.01,CLR,,0.09,WeatherDisplay:10.37,2013-01-26 20:07:00,
2013-01-26 15:12:00,33.1,30.2,29.55,NNE,23,0.0,0.0,89,0.02,RA,,0.10,WeatherDisplay:10.37,2013-01-26 20:12:00,
2013-01-26 15:17:00,33.2,30.6,29.55,NNE,23,0.0,0.0,90,0.02,RA,,0.10,WeatherDisplay:10.37,2013-01-26 20:17:00,
2013-01-26 15:22:00,33.2,30.6,29.55,NNE,23,0.0,0.0,90,0.02,CLR,,0.10,WeatherDisplay:10.37,2013-01-26 20:22:00,
2013-01-26 15:27:00,33.4,30.8,29.56,NNE,23,0.0,0.0,90,0.02,CLR,,0.10,WeatherDisplay:10.37,2013-01-26 20:27:00,
2013-01-26 15:32:00,33.4,30.8,29.56,NNE,23,0.0,0.0,90,0.01,CLR,,0.10,WeatherDisplay:10.37,2013-01-26 20:32:00,
2013-01-26 15:37:00,33.1,30.5,29.56,NNE,23,0.0,0.0,90,0.01,CLR,,0.10,WeatherDisplay:10.37,2013-01-26 20:37:00,
2013-01-26 15:42:00,32.8,30.2,29.56,NNE,23,0.0,0.0,90,0.01,CLR,,0.10,WeatherDisplay:10.37,2013-01-26 20:42:00,
2013-01-26 15:47:00,32.9,30.3,29.56,NNE,23,0.0,0.0,90,0.01,CLR,,0.10,WeatherDisplay:10.37,2013-01-26 20:47:00,
2013-01-26 15:52:00,32.9,30.3,29.56,NNE,23,0.0,0.0,90,0.01,CLR,,0.10,WeatherDisplay:10.37,2013-01-26 20:52:00,
2013-01-26 15:57:00,32.9,30.3,29.56,NNE,23,0.0,0.0,90,0.01,CLR,,0.10,WeatherDisplay:10.37,2013-01-26 20:57:00,
2013-01-26 16:02:00,32.9,30.6,29.56,NNE,23,0.0,0.0,91,0.01,CLR,,0.10,WeatherDisplay:10.37,2013-01-26 21:02:00,
2013-01-26 16:07:00,32.9,30.3,29.56,NNE,23,0.0,0.0,90,0.01,CLR,,0.10,WeatherDisplay:10.37,2013-01-26 21:07:00,
2013-01-26 16:12:00,32.8,30.5,29.57,NNE,23,0.0,0.0,91,0.01,RA,,0.11,WeatherDisplay:10.37,2013-01-26 21:12:00,
2013-01-26 16:17:00,32.8,30.5,29.57,NE,45,0.0,0.0,91,0.01,RA,,0.11,WeatherDisplay:10.37,2013-01-26 21:17:00,
2013-01-26 16:22:00,32.8,30.5,29.57,NE,45,0.0,0.0,91,0.01,CLR,,0.11,WeatherDisplay:10.37,2013-01-26 21:22:00,
2013-01-26 16:27:00,32.8,30.5,29.57,NE,45,0.0,0.0,91,0.01,CLR,,0.11,WeatherDisplay:10.37,2013-01-26 21:27:00,
2013-01-26 16:32:00,32.7,30.4,29.57,NE,45,0.0,0.0,91,0.01,CLR,,0.11,WeatherDisplay:10.37,2013-01-26 21:32:00,
2013-01-26 16:37:00,32.8,30.5,29.57,NE,45,0.0,0.0,91,0.01,CLR,,0.11,WeatherDisplay:10.37,2013-01-26 21:37:00,
2013-01-26 16:42:00,32.8,30.2,29.58,NE,45,0.0,0.0,90,0.01,CLR,,0.11,WeatherDisplay:10.37,2013-01-26 21:42:00,
2013-01-26 16:47:00,32.9,30.3,29.58,NE,45,0.0,0.0,90,0.01,CLR,,0.11,WeatherDisplay:10.37,2013-01-26 21:47:00,
2013-01-26 16:52:00,32.9,30.6,29.58,NE,45,0.0,0.0,91,0.01,CLR,,0.11,WeatherDisplay:10.37,2013-01-26 21:52:00,
2013-01-26 16:57:00,32.9,30.6,29.58,NE,45,0.0,0.0,91,0.01,CLR,,0.11,WeatherDisplay:10.37,2013-01-26 21:57:00,
2013-01-26 17:02:00,32.8,30.5,29.58,NE,45,0.0,0.0,91,0.01,CLR,,0.11,WeatherDisplay:10.37,2013-01-26 22:02:00,
2013-01-26 17:07:00,32.8,30.5,29.58,NE,45,0.0,0.0,91,0.01,CLR,,0.11,WeatherDisplay:10.37,2013-01-26 22:07:00,
2013-01-26 17:12:00,32.8,30.5,29.58,NE,45,0.0,0.0,91,0.00,CLR,,0.11,WeatherDisplay:10.37,2013-01-26 22:12:00,
2013-01-26 17:17:00,32.7,30.4,29.58,NE,45,0.0,0.0,91,0.00,CLR,,0.11,WeatherDisplay:10.37,2013-01-26 22:17:00,
2013-01-26 17:22:00,32.7,30.4,29.58,NE,45,0.0,0.0,91,0.00,CLR,,0.11,WeatherDisplay:10.37,2013-01-26 22:22:00,
2013-01-26 17:27:00,32.5,30.2,29.59,NE,45,0.0,0.0,91,0.00,CLR,,0.11,WeatherDisplay:10.37,2013-01-26 22:27:00,
2013-01-26 17:32:00,32.4,30.1,29.59,NE,45,0.0,0.0,91,0.00,CLR,,0.11,WeatherDisplay:10.37,2013-01-26 22:32:00,
2013-01-26 17:37:00,32.2,29.9,29.59,NE,45,0.0,0.0,91,0.00,CLR,,0.11,WeatherDisplay:10.37,2013-01-26 22:37:00,
2013-01-26 17:42:00,32.1,30.0,29.59,NE,45,0.0,0.0,92,0.00,CLR,,0.11,WeatherDisplay:10.37,2013-01-26 22:42:00,
2013-01-26 17:48:00,31.9,29.8,29.59,NE,45,0.0,0.0,92,0.00,CLR,,0.11,WeatherDisplay:10.37,2013-01-26 22:48:00,
2013-01-26 17:53:00,31.8,29.7,29.59,NE,45,0.0,0.0,92,0.00,CLR,,0.11,WeatherDisplay:10.37,2013-01-26 22:53:00,
2013-01-26 17:58:00,31.6,29.5,29.60,NE,45,0.0,0.0,92,0.00,CLR,,0.11,WeatherDisplay:10.37,2013-01-26 22:58:00,
2013-01-26 18:03:00,31.5,29.4,29.60,NE,45,0.0,0.0,92,0.00,CLR,,0.11,WeatherDisplay:10.37,2013-01-26 23:03:00,
2013-01-26 18:08:00,31.3,29.2,29.60,NE,45,0.0,0.0,92,0.00,CLR,,0.11,WeatherDisplay:10.37,2013-01-26 23:08:00,
2013-01-26 18:13:00,31.2,29.1,29.61,NE,45,0.0,0.0,92,0.00,CLR,,0.11,WeatherDisplay:10.37,2013-01-26 23:13:00,
2013-01-26 18:18:00,31.2,29.4,29.61,NE,45,0.0,0.0,93,0.00,CLR,,0.11,WeatherDisplay:10.37,2013-01-26 23:18:00,
2013-01-26 18:23:00,31.0,29.2,29.61,NE,45,0.0,0.0,93,0.00,CLR,,0.11,WeatherDisplay:10.37,2013-01-26 23:23:00,
2013-01-26 18:28:00,30.9,29.1,29.61,NE,45,0.0,0.0,93,0.00,CLR,,0.11,WeatherDisplay:10.37,2013-01-26 23:28:00,
2013-01-26 18:33:00,30.9,29.1,29.61,NE,45,0.0,0.0,93,0.00,CLR,,0.11,WeatherDisplay:10.37,2013-01-26 23:33:00,
2013-01-26 18:38:00,30.7,28.9,29.61,NE,45,0.0,0.0,93,0.00,CLR,,0.11,WeatherDisplay:10.37,2013-01-26 23:38:00,
2013-01-26 18:43:00,30.7,28.9,29.62,NE,45,0.0,0.0,93,0.00,CLR,,0.11,WeatherDisplay:10.37,2013-01-26 23:43:00,
2013-01-26 18:48:00,30.6,28.8,29.62,NE,45,0.0,0.0,93,0.00,CLR,,0.11,WeatherDisplay:10.37,2013-01-26 23:48:00,
2013-01-26 18:53:00,30.6,28.8,29.62,NE,45,0.0,0.0,93,0.00,CLR,,0.11,WeatherDisplay:10.37,2013-01-26 23:53:00,
2013-01-26 18:58:00,30.4,28.9,29.63,NE,45,0.0,0.0,94,0.00,CLR,,0.11,WeatherDisplay:10.37,2013-01-26 23:58:00,
2013-01-26 19:03:00,30.3,28.8,29.63,NE,45,0.0,0.0,94,0.00,CLR,,0.11,WeatherDisplay:10.37,2013-01-27 00:03:00,
2013-01-26 19:08:00,30.1,28.6,29.63,NE,45,0.0,0.0,94,0.00,CLR,,0.11,WeatherDisplay:10.37,2013-01-27 00:08:00,
2013-01-26 19:13:00,30.1,28.6,29.64,NE,45,0.0,0.0,94,0.00,CLR,,0.11,WeatherDisplay:10.37,2013-01-27 00:13:00,
2013-01-26 19:18:00,30.1,28.6,29.64,NE,45,0.0,0.0,94,0.00,CLR,,0.11,WeatherDisplay:10.37,2013-01-27 00:18:00,
2013-01-26 19:23:00,30.0,28.5,29.64,NE,45,0.0,0.0,94,0.00,CLR,,0.11,WeatherDisplay:10.37,2013-01-27 00:23:00,
2013-01-26 19:28:00,29.8,28.3,29.63,NE,45,0.0,0.0,94,0.00,CLR,,0.11,WeatherDisplay:10.37,2013-01-27 00:28:00,
2013-01-26 19:33:00,29.7,28.2,29.63,NE,45,0.0,0.0,94,0.00,CLR,,0.11,WeatherDisplay:10.37,2013-01-27 00:33:00,
2013-01-26 19:38:00,29.8,28.3,29.63,NE,45,0.0,0.0,94,0.00,CLR,,0.11,WeatherDisplay:10.37,2013-01-27 00:38:00,
2013-01-26 19:43:00,29.7,28.2,29.64,NE,45,0.0,0.0,94,0.00,CLR,,0.11,WeatherDisplay:10.37,2013-01-27 00:43:00,
2013-01-26 19:48:00,29.7,28.2,29.64,NE,45,0.0,0.0,94,0.00,CLR,,0.11,WeatherDisplay:10.37,2013-01-27 00:48:00,
2013-01-26 19:53:00,29.8,28.5,29.64,NE,45,0.0,0.0,95,0.00,CLR,,0.11,WeatherDisplay:10.37,2013-01-27 00:53:00,
2013-01-26 19:58:00,29.8,28.5,29.64,ENE,76,0.0,0.0,95,0.00,CLR,,0.11,WeatherDisplay:10.37,2013-01-27 00:58:00,
2013-01-26 20:03:00,29.7,28.4,29.64,ENE,76,0.0,0.0,95,0.00,CLR,,0.11,WeatherDisplay:10.37,2013-01-27 01:03:00,
2013-01-26 20:08:00,29.7,28.4,29.64,ENE,76,0.0,0.0,95,0.00,CLR,,0.11,WeatherDisplay:10.37,2013-01-27 01:08:00,
2013-01-26 20:13:00,29.7,28.4,29.65,ENE,76,0.0,0.0,95,0.00,CLR,,0.11,WeatherDisplay:10.37,2013-01-27 01:13:00,
2013-01-26 20:18:00,29.7,28.4,29.65,ENE,76,0.0,0.0,95,0.00,CLR,,0.11,WeatherDisplay:10.37,2013-01-27 01:18:00,
2013-01-26 20:23:00,29.8,28.5,29.65,ENE,76,0.0,0.0,95,0.00,CLR,,0.11,WeatherDisplay:10.37,2013-01-27 01:23:00,
2013-01-26 20:28:00,29.7,28.4,29.65,ENE,76,0.0,0.0,95,0.00,CLR,,0.11,WeatherDisplay:10.37,2013-01-27 01:28:00,
2013-01-26 20:33:00,29.5,28.2,29.65,ENE,76,0.0,0.0,95,0.00,CLR,,0.11,WeatherDisplay:10.37,2013-01-27 01:33:00,
2013-01-26 20:38:00,29.5,28.2,29.65,ENE,76,0.0,0.0,95,0.00,CLR,,0.11,WeatherDisplay:10.37,2013-01-27 01:38:00,
2013-01-26 20:43:00,29.7,28.4,29.65,ENE,76,0.0,0.0,95,0.00,CLR,,0.11,WeatherDisplay:10.37,2013-01-27 01:43:00,
2013-01-26 20:48:00,29.5,28.2,29.65,ENE,76,0.0,0.0,95,0.00,CLR,,0.11,WeatherDisplay:10.37,2013-01-27 01:48:00,
2013-01-26 20:53:00,29.5,28.2,29.65,ENE,76,0.0,0.0,95,0.00,CLR,,0.11,WeatherDisplay:10.37,2013-01-27 01:53:00,
2013-01-26 20:58:00,29.5,28.2,29.66,ENE,76,0.0,0.0,95,0.00,CLR,,0.11,WeatherDisplay:10.37,2013-01-27 01:58:00,
2013-01-26 21:03:00,29.5,28.2,29.66,ENE,76,0.0,0.0,95,0.00,CLR,,0.11,WeatherDisplay:10.37,2013-01-27 02:03:00,
2013-01-26 21:08:00,29.5,28.2,29.66,ENE,76,0.0,0.0,95,0.00,CLR,,0.11,WeatherDisplay:10.37,2013-01-27 02:08:00,
2013-01-26 21:13:00,29.4,28.1,29.67,ENE,76,0.0,0.0,95,0.00,CLR,,0.11,WeatherDisplay:10.37,2013-01-27 02:13:00,
2013-01-26 21:18:00,29.3,28.0,29.67,ENE,76,0.0,0.0,95,0.00,CLR,,0.11,WeatherDisplay:10.37,2013-01-27 02:18:00,
2013-01-26 21:23:00,29.1,27.8,29.67,ENE,76,0.0,0.0,95,0.00,CLR,,0.11,WeatherDisplay:10.37,2013-01-27 02:23:00,
2013-01-26 21:28:00,29.0,27.7,29.67,ENE,76,0.0,0.0,95,0.00,CLR,,0.11,WeatherDisplay:10.37,2013-01-27 02:28:00,
2013-01-26 21:33:00,28.7,27.4,29.67,ENE,76,0.0,0.0,95,0.00,CLR,,0.11,WeatherDisplay:10.37,2013-01-27 02:33:00,
2013-01-26 21:38:00,28.8,27.5,29.67,ENE,76,0.0,0.0,95,0.00,CLR,,0.11,WeatherDisplay:10.37,2013-01-27 02:38:00,
2013-01-26 21:43:00,29.0,27.7,29.68,ENE,76,0.0,0.0,95,0.00,CLR,,0.11,WeatherDisplay:10.37,2013-01-27 02:43:00,
2013-01-26 21:48:00,28.8,27.5,29.68,ENE,76,0.0,0.0,95,0.00,CLR,,0.11,WeatherDisplay:10.37,2013-01-27 02:48:00,
2013-01-26 21:53:00,29.1,28.1,29.68,ENE,76,0.0,0.0,96,0.00,CLR,,0.11,WeatherDisplay:10.37,2013-01-27 02:53:00,
2013-01-26 21:58:00,29.1,28.1,29.69,ENE,78,0.0,0.0,96,0.00,CLR,,0.11,WeatherDisplay:10.37,2013-01-27 02:58:00,
2013-01-26 22:03:00,29.4,28.4,29.69,ENE,78,0.0,0.0,96,0.00,CLR,,0.11,WeatherDisplay:10.37,2013-01-27 03:03:00,
2013-01-26 22:08:00,29.4,28.4,29.69,ENE,78,0.0,0.0,96,0.00,CLR,,0.11,WeatherDisplay:10.37,2013-01-27 03:08:00,
2013-01-26 22:13:00,29.4,28.4,29.70,ENE,78,0.0,0.0,96,0.00,CLR,,0.11,WeatherDisplay:10.37,2013-01-27 03:13:00,
2013-01-26 22:18:00,29.3,28.3,29.70,ENE,78,0.0,0.0,96,0.00,CLR,,0.11,WeatherDisplay:10.37,2013-01-27 03:18:00,
2013-01-26 22:23:00,29.0,27.7,29.70,ENE,78,0.0,0.0,95,0.00,CLR,,0.11,WeatherDisplay:10.37,2013-01-27 03:23:00,
2013-01-26 22:28:00,28.7,27.4,29.70,ENE,78,0.0,0.0,95,0.00,CLR,,0.11,WeatherDisplay:10.37,2013-01-27 03:28:00,
2013-01-26 22:33:00,28.5,27.3,29.70,ENE,78,0.0,0.0,95,0.00,CLR,,0.11,WeatherDisplay:10.37,2013-01-27 03:33:00,
2013-01-26 22:38:00,28.4,27.2,29.70,ENE,78,0.0,0.0,95,0.00,CLR,,0.11,WeatherDisplay:10.37,2013-01-27 03:38:00,
2013-01-26 22:43:00,28.4,27.2,29.70,ENE,78,0.0,0.0,95,0.00,CLR,,0.11,WeatherDisplay:10.37,2013-01-27 03:43:00,
2013-01-26 22:48:00,28.4,27.2,29.70,ENE,78,0.0,0.0,95,0.00,CLR,,0.11,WeatherDisplay:10.37,2013-01-27 03:48:00,
2013-01-26 22:53:00,28.5,27.5,29.70,ENE,78,0.0,0.0,96,0.00,CLR,,0.11,WeatherDisplay:10.37,2013-01-27 03:53:00,
2013-01-26 22:58:00,28.5,27.5,29.71,ENE,78,0.0,0.0,96,0.00,CLR,,0.11,WeatherDisplay:10.37,2013-01-27 03:58:00,
2013-01-26 23:03:00,28.5,27.5,29.71,ENE,78,0.0,0.0,96,0.00,CLR,,0.11,WeatherDisplay:10.37,2013-01-27 04:03:00,
2013-01-26 23:08:00,28.4,27.2,29.71,ENE,78,0.0,0.0,95,0.00,CLR,,0.11,WeatherDisplay:10.37,2013-01-27 04:08:00,
2013-01-26 23:13:00,28.2,27.0,29.71,ENE,78,0.0,0.0,95,0.00,CLR,,0.11,WeatherDisplay:10.37,2013-01-27 04:13:00,
2013-01-26 23:18:00,28.1,26.9,29.71,ENE,78,0.0,0.0,95,0.00,CLR,,0.11,WeatherDisplay:10.37,2013-01-27 04:18:00,
2013-01-26 23:23:00,28.1,26.9,29.71,ENE,78,0.0,0.0,95,0.00,CLR,,0.11,WeatherDisplay:10.37,2013-01-27 04:23:00,
2013-01-26 23:28:00,27.9,26.7,29.72,ENE,78,0.0,0.0,95,0.00,CLR,,0.11,WeatherDisplay:10.37,2013-01-27 04:28:00,
2013-01-26 23:33:00,27.8,26.6,29.72,ENE,78,0.0,0.0,95,0.00,CLR,,0.11,WeatherDisplay:10.37,2013-01-27 04:33:00,
2013-01-26 23:38:00,27.8,26.6,29.72,ENE,78,0.0,0.0,95,0.00,CLR,,0.11,WeatherDisplay:10.37,2013-01-27 04:38:00,
2013-01-26 23:43:00,27.6,26.4,29.72,ENE,78,0.0,0.0,95,0.00,CLR,,0.11,WeatherDisplay:10.37,2013-01-27 04:43:00,
2013-01-26 23:48:00,27.5,26.3,29.72,ENE,78,0.0,0.0,95,0.00,CLR,,0.11,WeatherDisplay:10.37,2013-01-27 04:48:00,
2013-01-26 23:53:00,27.3,26.1,29.72,ENE,78,0.0,0.0,95,0.00,CLR,,0.11,WeatherDisplay:10.37,2013-01-27 04:53:00,
2013-01-26 23:58:00,27.2,26.0,29.72,ENE,78,0.0,0.0,95,0.00,CLR,,0.11,WeatherDisplay:10.37,2013-01-27 04:58:00,